Time,TemperatureF,DewpointF,PressureIn,WindDirection,WindDirectionDegrees,WindSpeedMPH,WindSpeedGustMPH,Humidity,HourlyPrecipIn,Conditions,Clouds,dailyrainin,SolarRadiationWatts/m^2,SoftwareType,DateUTC
2014-01-05 00:05:00,14.5,9.0,30.19,NNW,336,0.0,0.0,80,0.00,,,0.00,0,weatherlink.com 1.10,2014-01-05 05:05:00,
2014-01-05 00:20:00,14.6,9.0,30.19,NNW,336,0.0,0.0,79,0.00,,,0.00,0,weatherlink.com 1.10,2014-01-05 05:20:00,
2014-01-05 00:35:00,14.6,10.0,30.20,NNW,336,0.0,0.0,80,0.00,,,0.00,0,weatherlink.com 1.10,2014-01-05 05:35:00,
2014-01-05 00:50:00,14.8,9.0,30.20,NNW,336,0.0,0.0,79,0.00,,,0.00,0,weatherlink.com 1.10,2014-01-05 05:50:00,
2014-01-05 01:06:00,15.1,10.0,30.20,NNW,336,0.0,0.0,79,0.00,,,0.00,0,weatherlink.com 1.10,2014-01-05 06:06:00,
2014-01-05 01:21:00,15.3,11.0,30.21,NNW,336,0.0,0.0,81,0.00,,,0.00,0,weatherlink.com 1.10,2014-01-05 06:21:00,
2014-01-05 01:36:00,15.7,11.0,30.22,NNW,336,0.0,0.0,80,0.00,,,0.00,0,weatherlink.com 1.10,2014-01-05 06:36:00,
2014-01-05 01:51:00,16.2,11.0,30.22,NNW,336,0.0,0.0,81,0.00,,,0.00,0,weatherlink.com 1.10,2014-01-05 06:51:00,
2014-01-05 02:06:00,16.4,11.0,30.22,NNW,336,0.0,0.0,80,0.00,,,0.00,0,weatherlink.com 1.10,2014-01-05 07:06:00,
2014-01-05 02:21:00,16.6,11.0,30.23,NNW,336,0.0,1.0,79,0.00,,,0.00,0,weatherlink.com 1.10,2014-01-05 07:21:00,
2014-01-05 02:36:00,16.8,12.0,30.23,NNW,336,0.0,0.0,80,0.00,,,0.00,0,weatherlink.com 1.10,2014-01-05 07:36:00,
2014-01-05 02:51:00,16.4,12.0,30.22,NNW,336,0.0,0.0,81,0.00,,,0.00,0,weatherlink.com 1.10,2014-01-05 07:51:00,
2014-01-05 03:06:00,16.0,11.0,30.22,NNW,336,0.0,1.0,79,0.00,,,0.00,0,weatherlink.com 1.10,2014-01-05 08:06:00,
2014-01-05 03:21:00,15.7,11.0,30.22,NNW,336,0.0,0.0,80,0.00,,,0.00,0,weatherlink.com 1.10,2014-01-05 08:21:00,
2014-01-05 03:36:00,15.5,10.0,30.22,NNW,336,0.0,0.0,80,0.00,,,0.00,0,weatherlink.com 1.10,2014-01-05 08:36:00,
2014-01-05 03:51:00,15.6,11.0,30.21,NNW,336,0.0,0.0,81,0.00,,,0.00,0,weatherlink.com 1.10,2014-01-05 08:51:00,
2014-01-05 04:06:00,15.8,12.0,30.21,NNW,336,0.0,0.0,84,0.00,,,0.00,0,weatherlink.com 1.10,2014-01-05 09:06:00,
2014-01-05 04:36:00,16.3,12.0,30.20,NNW,336,0.0,0.0,83,0.00,,,0.00,0,weatherlink.com 1.10,2014-01-05 09:36:00,
2014-01-05 04:51:00,16.4,12.0,30.20,NNW,339,0.0,2.0,84,0.00,,,0.00,0,weatherlink.com 1.10,2014-01-05 09:51:00,
2014-01-05 05:06:00,16.5,13.0,30.21,NNW,339,0.0,0.0,84,0.00,,,0.00,0,weatherlink.com 1.10,2014-01-05 10:06:00,
2014-01-05 05:21:00,16.4,12.0,30.22,NNW,339,0.0,0.0,83,0.00,,,0.00,0,weatherlink.com 1.10,2014-01-05 10:21:00,
2014-01-05 05:36:00,16.3,12.0,30.21,NNW,339,0.0,0.0,83,0.00,,,0.00,0,weatherlink.com 1.10,2014-01-05 10:36:00,
2014-01-05 05:51:00,16.2,12.0,30.21,NNW,339,0.0,0.0,82,0.00,,,0.00,0,weatherlink.com 1.10,2014-01-05 10:51:00,
2014-01-05 06:06:00,16.3,11.0,30.21,NNW,339,0.0,0.0,81,0.00,,,0.00,0,weatherlink.com 1.10,2014-01-05 11:06:00,
2014-01-05 06:21:00,16.2,11.0,30.22,NNW,339,0.0,0.0,80,0.00,,,0.00,0,weatherlink.com 1.10,2014-01-05 11:21:00,
2014-01-05 06:36:00,16.2,11.0,30.22,NNW,339,0.0,1.0,81,0.00,,,0.00,0,weatherlink.com 1.10,2014-01-05 11:36:00,
2014-01-05 06:51:00,16.2,12.0,30.22,NNW,339,1.0,1.0,82,0.00,,,0.00,0,weatherlink.com 1.10,2014-01-05 11:51:00,
2014-01-05 07:06:00,15.9,11.0,30.22,NNW,339,0.0,1.0,82,0.00,,,0.00,0,weatherlink.com 1.10,2014-01-05 12:06:00,
2014-01-05 07:21:00,15.7,11.0,30.23,NNW,334,0.0,2.0,82,0.00,,,0.00,0,weatherlink.com 1.10,2014-01-05 12:21:00,
2014-01-05 07:36:00,15.5,11.0,30.25,NNW,334,0.0,0.0,83,0.00,,,0.00,0,weatherlink.com 1.10,2014-01-05 12:36:00,
2014-01-05 07:51:00,15.5,11.0,30.25,NNW,334,0.0,0.0,83,0.00,,,0.00,9,weatherlink.com 1.10,2014-01-05 12:51:00,
2014-01-05 08:06:00,15.9,12.0,30.25,North,350,0.0,1.0,83,0.00,,,0.00,16,weatherlink.com 1.10,2014-01-05 13:06:00,
2014-01-05 08:21:00,16.7,12.0,30.25,West,268,0.0,2.0,83,0.00,,,0.00,26,weatherlink.com 1.10,2014-01-05 13:21:00,
2014-01-05 08:36:00,17.5,13.0,30.26,NNW,339,0.0,1.0,83,0.00,,,0.00,25,weatherlink.com 1.10,2014-01-05 13:36:00,
2014-01-05 08:51:00,18.2,12.0,30.25,WNW,292,0.0,0.0,78,0.00,,,0.00,35,weatherlink.com 1.10,2014-01-05 13:51:00,
2014-01-05 09:06:00,19.0,14.0,30.26,WNW,292,0.0,0.0,79,0.00,,,0.00,35,weatherlink.com 1.10,2014-01-05 14:06:00,
2014-01-05 09:21:00,19.8,15.0,30.26,WNW,293,0.0,0.0,80,0.00,,,0.00,47,weatherlink.com 1.10,2014-01-05 14:21:00,
2014-01-05 09:36:00,20.9,14.0,30.25,NNW,338,0.0,2.0,76,0.00,,,0.00,153,weatherlink.com 1.10,2014-01-05 14:36:00,
2014-01-05 09:51:00,22.1,16.0,30.27,NNW,344,0.0,1.0,77,0.00,,,0.00,72,weatherlink.com 1.10,2014-01-05 14:51:00,
2014-01-05 10:06:00,22.6,16.0,30.26,NW,318,0.0,1.0,75,0.00,,,0.00,69,weatherlink.com 1.10,2014-01-05 15:06:00,
2014-01-05 10:22:00,23.3,16.0,30.26,West,277,0.0,2.0,72,0.00,,,0.00,100,weatherlink.com 1.10,2014-01-05 15:22:00,
2014-01-05 10:37:00,24.1,16.0,30.25,NW,321,0.0,3.0,70,0.00,,,0.00,121,weatherlink.com 1.10,2014-01-05 15:37:00,
2014-01-05 10:52:00,24.6,15.0,30.25,NW,311,0.0,3.0,66,0.00,,,0.00,102,weatherlink.com 1.10,2014-01-05 15:52:00,
2014-01-05 11:07:00,24.7,15.0,30.23,WSW,252,0.0,4.0,68,0.00,,,0.00,70,weatherlink.com 1.10,2014-01-05 16:07:00,
2014-01-05 11:22:00,24.8,16.0,30.23,WSW,256,2.0,3.0,68,0.00,,,0.00,60,weatherlink.com 1.10,2014-01-05 16:22:00,
2014-01-05 11:37:00,24.8,16.0,30.23,South,190,0.0,2.0,70,0.00,,,0.00,76,weatherlink.com 1.10,2014-01-05 16:37:00,
2014-01-05 11:52:00,25.0,17.0,30.23,North,11,1.0,3.0,72,0.00,,,0.00,53,weatherlink.com 1.10,2014-01-05 16:52:00,
2014-01-05 12:07:00,24.9,16.0,30.23,West,268,0.0,3.0,70,0.00,,,0.00,74,weatherlink.com 1.10,2014-01-05 17:07:00,
2014-01-05 12:22:00,25.1,16.0,30.22,West,263,0.0,8.0,69,0.00,,,0.00,88,weatherlink.com 1.10,2014-01-05 17:22:00,
2014-01-05 12:39:00,25.6,17.0,30.20,NNE,13,4.0,5.0,71,0.00,,,0.00,91,weatherlink.com 1.10,2014-01-05 17:39:00,
2014-01-05 12:52:00,26.0,17.0,30.19,NW,319,1.0,4.0,69,0.00,,,0.00,81,weatherlink.com 1.10,2014-01-05 17:52:00,
2014-01-05 13:07:00,26.7,17.0,30.19,NW,326,0.0,2.0,66,0.00,,,0.00,86,weatherlink.com 1.10,2014-01-05 18:07:00,
2014-01-05 13:22:00,27.2,17.0,30.18,NNW,344,0.0,3.0,66,0.00,,,0.00,60,weatherlink.com 1.10,2014-01-05 18:22:00,
2014-01-05 13:37:00,27.5,18.0,30.18,NNW,344,0.0,1.0,68,0.00,,,0.00,49,weatherlink.com 1.10,2014-01-05 18:37:00,
2014-01-05 13:52:00,27.5,18.0,30.17,NNW,344,0.0,1.0,67,0.00,,,0.00,54,weatherlink.com 1.10,2014-01-05 18:52:00,
2014-01-05 14:07:00,28.0,19.0,30.17,WNW,286,0.0,2.0,69,0.00,,,0.00,47,weatherlink.com 1.10,2014-01-05 19:07:00,
2014-01-05 14:22:00,28.4,20.0,30.18,WNW,286,0.0,0.0,72,0.00,,,0.00,47,weatherlink.com 1.10,2014-01-05 19:22:00,
2014-01-05 14:37:00,28.6,19.0,30.17,WNW,286,0.0,1.0,68,0.00,,,0.00,63,weatherlink.com 1.10,2014-01-05 19:37:00,
2014-01-05 14:53:00,28.4,20.0,30.17,ESE,119,2.0,3.0,71,0.00,,,0.00,58,weatherlink.com 1.10,2014-01-05 19:53:00,
2014-01-05 15:08:00,28.0,19.0,30.17,ESE,119,0.0,2.0,68,0.00,,,0.00,44,weatherlink.com 1.10,2014-01-05 20:08:00,
2014-01-05 15:23:00,27.8,19.0,30.16,ESE,123,0.0,3.0,69,0.00,,,0.00,33,weatherlink.com 1.10,2014-01-05 20:23:00,
2014-01-05 15:38:00,27.5,19.0,30.17,East,101,1.0,3.0,69,0.00,,,0.00,26,weatherlink.com 1.10,2014-01-05 20:38:00,
2014-01-05 15:53:00,27.5,19.0,30.17,ESE,102,1.0,2.0,69,0.00,,,0.00,18,weatherlink.com 1.10,2014-01-05 20:53:00,
2014-01-05 16:08:00,27.3,19.0,30.17,East,101,0.0,3.0,70,0.00,,,0.00,5,weatherlink.com 1.10,2014-01-05 21:08:00,
2014-01-05 16:23:00,27.3,18.0,30.17,ESE,116,1.0,4.0,69,0.00,,,0.00,0,weatherlink.com 1.10,2014-01-05 21:23:00,
2014-01-05 16:38:00,27.2,18.0,30.16,ESE,110,2.0,4.0,69,0.00,,,0.00,0,weatherlink.com 1.10,2014-01-05 21:38:00,
2014-01-05 16:53:00,27.1,19.0,30.16,ESE,113,1.0,3.0,70,0.00,,,0.00,0,weatherlink.com 1.10,2014-01-05 21:53:00,
2014-01-05 17:08:00,27.0,19.0,30.17,ESE,107,0.0,2.0,71,0.00,,,0.00,0,weatherlink.com 1.10,2014-01-05 22:08:00,
2014-01-05 17:23:00,26.8,20.0,30.17,ESE,107,0.0,1.0,74,0.00,,,0.00,0,weatherlink.com 1.10,2014-01-05 22:23:00,
2014-01-05 17:38:00,26.5,20.0,30.13,ESE,107,0.0,2.0,75,0.00,,,0.00,0,weatherlink.com 1.10,2014-01-05 22:38:00,
2014-01-05 17:53:00,26.2,21.0,30.14,ESE,107,0.0,0.0,79,0.00,,,0.00,0,weatherlink.com 1.10,2014-01-05 22:53:00,
2014-01-05 18:08:00,26.0,20.0,30.13,ESE,107,0.0,0.0,77,0.00,,,0.00,0,weatherlink.com 1.10,2014-01-05 23:08:00,
2014-01-05 18:23:00,26.0,20.0,30.14,ESE,107,0.0,0.0,78,0.00,,,0.00,0,weatherlink.com 1.10,2014-01-05 23:23:00,
2014-01-05 18:38:00,26.0,20.0,30.13,ESE,107,0.0,0.0,78,0.00,,,0.00,0,weatherlink.com 1.10,2014-01-05 23:38:00,
2014-01-05 18:53:00,26.1,20.0,30.12,ESE,107,0.0,1.0,77,0.00,,,0.00,0,weatherlink.com 1.10,2014-01-05 23:53:00,
2014-01-05 19:08:00,26.1,20.0,30.12,ESE,107,0.0,0.0,79,0.00,,,0.00,0,weatherlink.com 1.10,2014-01-06 00:08:00,
2014-01-05 19:23:00,26.0,21.0,30.12,ESE,107,0.0,0.0,80,0.00,,,0.00,0,weatherlink.com 1.10,2014-01-06 00:23:00,
2014-01-05 19:38:00,26.0,20.0,30.11,ESE,107,0.0,0.0,79,0.00,,,0.00,0,weatherlink.com 1.10,2014-01-06 00:38:00,
2014-01-05 19:53:00,26.1,21.0,30.10,ESE,107,0.0,0.0,81,0.00,,,0.00,0,weatherlink.com 1.10,2014-01-06 00:53:00,
2014-01-05 20:08:00,26.2,22.0,30.08,ESE,107,0.0,0.0,83,0.00,,,0.00,0,weatherlink.com 1.10,2014-01-06 01:08:00,
2014-01-05 20:23:00,26.3,22.0,30.07,ESE,107,0.0,0.0,83,0.00,,,0.00,0,weatherlink.com 1.10,2014-01-06 01:23:00,
2014-01-05 20:38:00,26.5,22.0,30.05,ESE,107,0.0,0.0,83,0.00,,,0.00,0,weatherlink.com 1.10,2014-01-06 01:38:00,
2014-01-05 20:53:00,26.7,23.0,30.05,ESE,107,0.0,1.0,84,0.00,,,0.00,0,weatherlink.com 1.10,2014-01-06 01:53:00,
2014-01-05 21:08:00,26.9,23.0,30.04,ESE,107,0.0,1.0,85,0.00,,,0.00,0,weatherlink.com 1.10,2014-01-06 02:08:00,
2014-01-05 21:23:00,27.1,24.0,30.03,ESE,107,0.0,0.0,87,0.00,,,0.00,0,weatherlink.com 1.10,2014-01-06 02:23:00,
2014-01-05 21:38:00,27.6,25.0,30.01,SSW,201,0.0,2.0,89,0.00,,,0.00,0,weatherlink.com 1.10,2014-01-06 02:38:00,
2014-01-05 21:53:00,28.0,26.0,29.99,SSW,202,0.0,1.0,90,0.00,,,0.00,0,weatherlink.com 1.10,2014-01-06 02:53:00,
2014-01-05 22:08:00,28.8,27.0,29.97,SSW,198,0.0,2.0,91,0.00,,,0.00,0,weatherlink.com 1.10,2014-01-06 03:08:00,
2014-01-05 22:23:00,29.2,27.0,29.95,SW,223,0.0,2.0,92,0.00,,,0.00,0,weatherlink.com 1.10,2014-01-06 03:23:00,
2014-01-05 22:38:00,28.5,26.0,29.95,SW,223,0.0,0.0,90,0.00,,,0.00,0,weatherlink.com 1.10,2014-01-06 03:38:00,
2014-01-05 22:53:00,29.7,28.0,29.93,West,266,0.0,2.0,92,0.00,,,0.00,0,weatherlink.com 1.10,2014-01-06 03:53:00,
2014-01-05 23:08:00,30.7,29.0,29.90,NW,323,0.0,1.0,92,0.00,,,0.00,0,weatherlink.com 1.10,2014-01-06 04:08:00,
2014-01-05 23:23:00,30.9,29.0,29.88,NW,323,0.0,1.0,92,0.00,,,0.00,0,weatherlink.com 1.10,2014-01-06 04:23:00,
2014-01-05 23:39:00,31.3,29.0,29.87,WSW,242,0.0,4.0,92,0.00,,,0.00,0,weatherlink.com 1.10,2014-01-06 04:39:00,
2014-01-05 23:54:00,31.5,30.0,29.84,North,360,0.0,5.0,92,0.00,,,0.00,0,weatherlink.com 1.10,2014-01-06 04:54:00,